Regional Weather Roundup
Issued by NWS

Home | Current Version | Previous Version | Text Only | Print | Product List | Glossary On
Versions: 1 2 3 4 5 6 7 8 9 10 11 12 13 14 15 16 17 18 19 20 21 22 23 24 25 26 27 28 29 30 31 32 33 34 35 36 37 38 39 40 41 42 43 44 45 46 47 48 49 50
000
ASUS43 KLSX 020759
RWRMO

WEATHER SUMMARY FOR MISSOURI
NATIONAL WEATHER SERVICE SPRINGFIELD MO
300 AM CDT SAT AUG 02 2014

NOTE: "FAIR" INDICATES FEW OR NO CLOUDS BELOW 12,000 FEET WITH NO
       SIGNIFICANT WEATHER AND/OR OBSTRUCTIONS TO VISIBILITY.
       CURRENT SKY AND/OR WEATHER CONDITIONS ARE NOT AVAILABLE FOR
       CHILLICOTHE AND FARMINGTON.

MOZ001>031-035>038-043-044-053-054-020900-
...NORTHERN AND WESTERN MISSOURI...

CITY           SKY/WX    TMP DP  RH WIND       PRES   REMARKS
KANSAS CTY INT CLEAR     71  61  70 E7        30.10F
KANSAS C DTWN  CLEAR     69  62  78 E6        30.09S
LEE`S SUMMIT   CLEAR     68  61  78 SE3       30.11S
ST JOSEPH      CLEAR     61  59  93 W5        30.11S
KIRKSVILLE     FOG       57  56  96 CALM      30.12S VSB 1/2

$$
MOZ066>068-077>081-088>096-101>105-020900-
...SOUTHWEST MISSOURI...

CITY           SKY/WX    TMP DP  RH WIND       PRES   REMARKS
SPRINGFIELD    CLOUDY    70  63  78 CALM      30.10R
JOPLIN         CLEAR     65  63  93 CALM      30.09S

$$
MOZ032>034-039>042-045>050-055>058-069>072-020900-
...CENTRAL MISSOURI...

CITY           SKY/WX    TMP DP  RH WIND       PRES   REMARKS
COLUMBIA       CLEAR     61  60  97 CALM      30.10S FOG
JEFFERSON CITY CLEAR     62  60  93 CALM      30.08F
ROLLA          CLEAR     64  60  87 E5        30.08F
SEDALIA        CLEAR     65  60  84 SE3       30.11S
OSAGE BEACH      N/A     63  57  82 CALM      30.09F

$$
MOZ051-052-059>065-020900-
...EAST CENTRAL MISSOURI...

CITY           SKY/WX    TMP DP  RH WIND       PRES   REMARKS
ST LOUIS INTL  PTCLDY    66  61  84 CALM      30.09S
SPIRIT OF STL  FOG       63  63 100 CALM      30.08S VSB 1/4
ST CHARLES     CLEAR     63  62  97 CALM      30.09S FOG

$$
MOZ072>076-082>087-097>100-106>115-020900-
...SOUTH CENTRAL AND SOUTHEAST MISSOURI...

CITY           SKY/WX    TMP DP  RH WIND       PRES   REMARKS
CAPE GIRARDEAU CLOUDY    66  64  93 CALM      30.06S
FARMINGTON     PTCLDY    64  61  88 CALM      30.11S
POPLAR BLUFF   CLEAR     65  62  90 CALM      30.05S
WEST PLAINS    PTCLDY    64  61  90 CALM      30.11S

$$



USA.gov is the U.S. government's official web portal to all federal, state and local government web resources and services.